When you browse on this site, cookies collect data to enhance your experience and personalize the content and advertising you see.
Visit our Privacy Policy to learn more. By continuing to use the site, you agree to this use of cookies and data.
  • In Latvia
  • List of Countries
  • For 7 days
  • Water Temperature
  • Weather Map
  • Weather Widgets
  • user-avatar
    Login

    Hourly Weather Prutz

    Today, 17 September, Tuesday

    Time Temperature Precipitation Wind Pressure Humidity
    00:00 +11°C° 0 mm 1 mps 636 mmHg 89%
    01:00 +12°C° 0 mm 1 mps 636 mmHg 89%
    02:00 +12°C° 0 mm 1 mps 636 mmHg 89%
    03:00 +11°C° 0 mm 1 mps 635 mmHg 89%
    04:00 +11°C° 0 mm 1 mps 635 mmHg 89%
    05:00 +12°C° 0 mm 1 mps 635 mmHg 88%
    06:00 +12°C° 0 mm 1 mps 635 mmHg 88%
    07:00 +14°C° 0 mm 1 mps 636 mmHg 91%
    08:00 +15°C° 0.1 mm 1 mps 636 mmHg 81%
    09:00 +18°C° 0.1 mm 1 mps 637 mmHg 70%
    10:00 +20°C° 0.1 mm 1 mps 637 mmHg 60%
    11:00 +19°C° 0.2 mm 2 mps 637 mmHg 59%
    12:00 +19°C° 0.2 mm 2 mps 637 mmHg 59%
    13:00 +20°C° 0 mm 3 mps 637 mmHg 57%
    14:00 +19°C° 0.1 mm 2 mps 637 mmHg 58%
    15:00 +19°C° 0.1 mm 2 mps 637 mmHg 58%
    16:00 +19°C° 0.1 mm 2 mps 636 mmHg 58%
    17:00 +16°C° 0.1 mm 2 mps 636 mmHg 68%
    18:00 +14°C° 0.1 mm 2 mps 635 mmHg 78%
    19:00 +12°C° 0.1 mm 1 mps 635 mmHg 88%
    20:00 +11°C° 0 mm 1 mps 635 mmHg 89%
    21:00 +11°C° 0 mm 1 mps 635 mmHg 90%
    22:00 +11°C° 0 mm 1 mps 635 mmHg 91%
    23:00 +11°C° 0 mm 1 mps 635 mmHg 93%

    Tomorrow, 18 September, Wednesday

    Time Temperature Precipitation Wind Pressure Humidity
    00:00 +10°C° 0 mm 1 mps 635 mmHg 94%
    01:00 +10°C° 0 mm 1 mps 635 mmHg 95%
    02:00 +10°C° 0 mm 1 mps 635 mmHg 95%
    03:00 +10°C° 0 mm 1 mps 635 mmHg 95%
    04:00 +10°C° 0 mm 1 mps 635 mmHg 94%
    05:00 +10°C° 0 mm 1 mps 635 mmHg 94%
    06:00 +10°C° 0 mm 1 mps 636 mmHg 94%
    07:00 +10°C° 0 mm 1 mps 636 mmHg 94%
    08:00 +12°C° 0 mm 1 mps 636 mmHg 86%
    09:00 +13°C° 0 mm 1 mps 637 mmHg 79%
    10:00 +14°C° 0 mm 1 mps 637 mmHg 71%
    11:00 +15°C° 0 mm 2 mps 637 mmHg 68%
    12:00 +15°C° 0 mm 2 mps 637 mmHg 66%
    13:00 +16°C° 0 mm 2 mps 637 mmHg 63%
    14:00 +15°C° 0 mm 2 mps 637 mmHg 66%
    15:00 +15°C° 0 mm 2 mps 637 mmHg 69%
    16:00 +14°C° 0 mm 2 mps 637 mmHg 72%
    17:00 +13°C° 0 mm 2 mps 636 mmHg 78%
    18:00 +12°C° 0 mm 2 mps 636 mmHg 84%
    19:00 +10°C° 0 mm 1 mps 636 mmHg 90%
    20:00 +10°C° 0 mm 1 mps 636 mmHg 91%
    21:00 +9°C° 0 mm 1 mps 636 mmHg 92%
    22:00 +9°C° 0 mm 1 mps 637 mmHg 92%
    23:00 +7°C° 0 mm 0 mps 637 mmHg 93%

    Day after tomorrow, 19 September, Thursday

    Time Temperature Precipitation Wind Pressure Humidity
    00:00 +7°C° 0 mm 0 mps 636 mmHg 93%
    01:00 +6°C° 0 mm 0 mps 636 mmHg 93%
    02:00 +6°C° 0 mm 0 mps 636 mmHg 93%
    03:00 +5°C° 0 mm 0 mps 635 mmHg 93%
    04:00 +5°C° 0 mm 0 mps 635 mmHg 94%
    05:00 +5°C° 0 mm 0 mps 636 mmHg 91%
    06:00 +6°C° 0 mm 0 mps 636 mmHg 88%
    07:00 +8°C° 0 mm 1 mps 636 mmHg 85%
    08:00 +10°C° 0 mm 1 mps 637 mmHg 74%
    09:00 +11°C° 0 mm 1 mps 638 mmHg 63%
    10:00 +13°C° 0 mm 1 mps 639 mmHg 51%
    11:00 +14°C° 0 mm 2 mps 639 mmHg 49%
    12:00 +15°C° 0 mm 2 mps 639 mmHg 47%
    13:00 +16°C° 0 mm 2 mps 639 mmHg 44%
    14:00 +16°C° 0 mm 2 mps 639 mmHg 47%
    15:00 +15°C° 0 mm 2 mps 639 mmHg 49%
    16:00 +15°C° 0 mm 2 mps 639 mmHg 51%
    17:00 +12°C° 0 mm 2 mps 638 mmHg 63%
    18:00 +10°C° 0 mm 1 mps 637 mmHg 75%
    19:00 +7°C° 0 mm 1 mps 637 mmHg 87%
    20:00 +7°C° 0 mm 1 mps 637 mmHg 87%
    21:00 +6°C° 0 mm 1 mps 637 mmHg 87%
    22:00 +6°C° 0 mm 1 mps 637 mmHg 87%
    23:00 +5°C° 0 mm 0 mps 637 mmHg 86%

    20 September, Friday

    Time Temperature Precipitation Wind Pressure Humidity
    00:00 +5°C° 0 mm 0 mps 637 mmHg 85%
    01:00 +5°C° 0 mm 0 mps 637 mmHg 84%
    02:00 +5°C° 0 mm 0 mps 637 mmHg 83%
    03:00 +5°C° 0 mm 0 mps 637 mmHg 82%
    04:00 +5°C° 0 mm 0 mps 637 mmHg 81%
    05:00 +6°C° 0 mm 0 mps 637 mmHg 78%
    06:00 +7°C° 0 mm 0 mps 637 mmHg 75%
    07:00 +8°C° 0 mm 0 mps 638 mmHg 72%
    08:00 +11°C° 0 mm 1 mps 638 mmHg 61%
    09:00 +13°C° 0 mm 1 mps 639 mmHg 51%
    10:00 +16°C° 0 mm 1 mps 640 mmHg 41%
    11:00 +18°C° 0 mm 1 mps 640 mmHg 40%
    12:00 +18°C° 0 mm 2 mps 640 mmHg 38%
    13:00 +18°C° 0 mm 2 mps 640 mmHg 37%
    14:00 +18°C° 0 mm 2 mps 640 mmHg 41%
    15:00 +18°C° 0 mm 2 mps 639 mmHg 45%
    16:00 +17°C° 0 mm 2 mps 639 mmHg 48%
    17:00 +14°C° 0 mm 1 mps 638 mmHg 60%
    18:00 +11°C° 0 mm 1 mps 638 mmHg 72%
    19:00 +8°C° 0 mm 0 mps 637 mmHg 84%
    20:00 +9°C° 0 mm 1 mps 637 mmHg 84%
    21:00 +9°C° 0 mm 1 mps 637 mmHg 85%
    22:00 +9°C° 0 mm 1 mps 637 mmHg 85%
    23:00 +9°C° 0 mm 1 mps 637 mmHg 85%

    21 September, Saturday

    Time Temperature Precipitation Wind Pressure Humidity
    00:00 +8°C° 0 mm 2 mps 637 mmHg 86%
    01:00 +8°C° 0 mm 2 mps 637 mmHg 87%
    02:00 +8°C° 0 mm 2 mps 637 mmHg 87%
    03:00 +8°C° 0 mm 2 mps 637 mmHg 87%
    04:00 +7°C° 0 mm 2 mps 637 mmHg 87%
    05:00 +9°C° 0 mm 1 mps 637 mmHg 86%
    06:00 +9°C° 0 mm 1 mps 637 mmHg 84%
    07:00 +10°C° 0 mm 1 mps 637 mmHg 82%
    08:00 +13°C° 0 mm 1 mps 638 mmHg 71%
    09:00 +15°C° 0 mm 1 mps 639 mmHg 60%
    10:00 +19°C° 0 mm 1 mps 640 mmHg 49%
    11:00 +20°C° 0 mm 1 mps 640 mmHg 45%
    12:00 +21°C° 0 mm 1 mps 640 mmHg 41%
    13:00 +22°C° 0 mm 1 mps 640 mmHg 38%
    14:00 +22°C° 0 mm 1 mps 640 mmHg 40%
    15:00 +22°C° 0 mm 1 mps 640 mmHg 42%
    16:00 +21°C° 0 mm 1 mps 639 mmHg 44%
    17:00 +19°C° 0 mm 1 mps 638 mmHg 57%
    18:00 +15°C° 0 mm 1 mps 638 mmHg 70%
    19:00 +12°C° 0 mm 1 mps 637 mmHg 82%
    20:00 +12°C° 0 mm 1 mps 637 mmHg 82%
    21:00 +12°C° 0 mm 2 mps 637 mmHg 81%
    22:00 +12°C° 0 mm 2 mps 637 mmHg 80%
    23:00 +12°C° 0 mm 2 mps 637 mmHg 80%

    22 September, Sunday

    Time Temperature Precipitation Wind Pressure Humidity
    00:00 +12°C° 0 mm 2 mps 637 mmHg 80%
    01:00 +10°C° 0 mm 2 mps 636 mmHg 79%
    02:00 +10°C° 0 mm 3 mps 636 mmHg 77%
    03:00 +10°C° 0 mm 3 mps 636 mmHg 76%
    04:00 +10°C° 0 mm 3 mps 636 mmHg 74%
    05:00 +10°C° 0 mm 3 mps 636 mmHg 74%
    06:00 +11°C° 0 mm 3 mps 636 mmHg 75%
    07:00 +11°C° 0 mm 3 mps 636 mmHg 75%
    08:00 +13°C° 0 mm 3 mps 636 mmHg 69%
    09:00 +16°C° 0 mm 3 mps 637 mmHg 64%
    10:00 +19°C° 0 mm 3 mps 638 mmHg 58%
    11:00 +19°C° 0 mm 2 mps 638 mmHg 57%
    12:00 +20°C° 0 mm 2 mps 638 mmHg 55%
    13:00 +21°C° 0 mm 2 mps 637 mmHg 53%
    14:00 +19°C° 0.3 mm 2 mps 637 mmHg 61%
    15:00 +18°C° 0.3 mm 2 mps 636 mmHg 68%
    16:00 +17°C° 0.3 mm 2 mps 636 mmHg 75%
    17:00 +16°C° 0.3 mm 2 mps 635 mmHg 80%
    18:00 +15°C° 0.3 mm 2 mps 635 mmHg 86%
    19:00 +13°C° 0.3 mm 1 mps 634 mmHg 91%
    20:00 +13°C° 0 mm 2 mps 634 mmHg 91%
    21:00 +13°C° 0 mm 2 mps 634 mmHg 92%
    22:00 +12°C° 0 mm 2 mps 634 mmHg 92%
    23:00 +13°C° 0.1 mm 2 mps 634 mmHg 92%
    Show more